Home > Weather > Bantam > Past weeks

Flag for Cocos Islands Weather for the Past 2 Weeks in Bantam, Cocos Islands

Now
84 °F

Scattered clouds.


Feels Like: 91 °F
Forecast: 82 / 86 °F
Wind: 16 mph from Northeast

Location: Cocos Island Airport

Current Time: Apr 29, 2016 at 7:04:05 PM

Latest Report: Apr 29, 2016 at 6:30 PM


Visibility: N/A

Pressure: 29.83 "Hg

Humidity: 70%

Dew Point: 73 °F

Location of BantamLocation

Historic Weather in Bantam — Graph

°F

Bantam Temperature Yesterday

Maximum temperature yesterday: 88 °F (at 10:00 AM)
Minimum temperature yesterday: 79 °F (at 1:00 AM)
Average temperature yesterday: 82 °F

High & Low Weather Summary for the Past Weeks

 TemperatureHumidityPressure
High90 °F (Apr 15, 2:00 PM)94% (Apr 16, 2:30 PM)29.95 "Hg (Apr 16, 2:30 PM)
Low77 °F (Apr 23, 7:30 AM)66% (Apr 21, 1:30 PM)29.74 "Hg (Apr 24, 2:30 PM)
Average83 °F82%29.84 "Hg
* Reported Apr 14 5:30 PM — Apr 29 5:30 PM, Bantam, Weather by CustomWeather, © 2016

Note: Actual official high and low records may vary slightly from our data, if they occured in-between our weather recording intervals... More about our weather records

Advertising

Bantam Weather History for the Previous 24 Hours

Scroll right to see more
 ConditionsComfort  
Time TempWeatherWind HumidityBarometerVisibility
5:30 PM
Fri, Apr 29
84 °FCloudy.16 mph79%29.83 "HgN/A
5:00 PM84 °FBroken clouds.18 mph84%29.80 "HgN/A
4:30 PM84 °FSprinkles. Mostly cloudy.13 mph79%29.80 "HgN/A
3:30 PM81 °FSprinkles. Broken clouds.20 mph89%29.80 "Hg4 mi
2:30 PM84 °FScattered showers. Broken clouds.18 mph84%29.80 "HgN/A
2:00 PM84 °FScattered showers. Broken clouds.17 mph84%29.80 "HgN/A
1:30 PM84 °FSprinkles. Partly sunny.18 mph84%29.83 "HgN/A
1:00 PM88 °FMostly cloudy.13 mph75%29.83 "HgN/A
12:30 PM88 °FMostly cloudy.14 mph75%29.83 "HgN/A
11:30 AM86 °FOvercast.14 mph79%29.86 "HgN/A
10:30 AM86 °FMostly cloudy.15 mph79%29.86 "HgN/A
9:30 AM86 °FOvercast.14 mph79%29.86 "HgN/A
9:00 AM86 °FOvercast.16 mph75%29.86 "HgN/A
8:30 AM84 °FOvercast.17 mph74%29.86 "HgN/A
8:00 AM84 °FPartly sunny.16 mph79%29.86 "HgN/A
7:30 AM82 °FScattered showers. Partly sunny.16 mph84%29.86 "HgN/A
6:30 AM82 °FScattered showers. Passing clouds.16 mph84%29.83 "HgN/A
5:30 AM82 °FPassing clouds.16 mph79%29.80 "HgN/A
4:30 AM82 °FPassing clouds.17 mph84%29.80 "HgN/A
3:30 AM82 °FClear.13 mph84%29.80 "HgN/A
3:00 AM82 °FPassing clouds.18 mph79%29.80 "HgN/A
2:30 AM82 °FPassing clouds.14 mph84%29.80 "HgN/A
1:30 AM82 °FPassing clouds.16 mph84%29.83 "HgN/A
1:00 AM82 °FPassing clouds.16 mph84%29.83 "HgN/A
12:30 AM82 °FPassing clouds.20 mph84%29.86 "HgN/A
12:00 AM82 °FClear.20 mph84%29.86 "HgN/A
11:30 PM
Thu, Apr 28
82 °FPassing clouds.17 mph84%29.86 "HgN/A
11:00 PM81 °FPassing clouds.12 mph89%29.89 "HgN/A
10:30 PM81 °FPassing clouds.10 mph89%29.89 "HgN/A
10:00 PM81 °FClear.12 mph89%29.86 "HgN/A
9:30 PM81 °FClear.12 mph84%29.86 "HgN/A
9:00 PM81 °FClear.10 mph84%29.86 "HgN/A
8:30 PM81 °FClear.10 mph84%29.86 "HgN/A
8:00 PM81 °FPassing clouds.15 mph89%29.86 "HgN/A
7:30 PM81 °FPassing clouds.15 mph89%29.86 "HgN/A
Weather by CustomWeather, © 2016

See weather overviewHow to use our weather pages